Weather History for KBML - March, 2014

Change the Weather History Date:

Tuesday, March 25, 2014

  Actual Average Record
Temperature  
Mean Temperature 5 °F -  
Max Temperature 30 °F 36 °F - (-1)
Min Temperature -18 °F 17 °F - (-1)
Degree Days  
Heating Degree Days 60    
Moisture  
Dew Point -6 °F    
Average Humidity 58    
Maximum Humidity 80    
Minimum Humidity 31    
Precipitation  
Precipitation 0.00 in - - ()
Sea Level Pressure  
Sea Level Pressure 30.07 in    
Wind  
Wind Speed 1 mph (SW)    
Max Wind Speed 9 mph    
Max Gust Speed 21 mph    
Visibility 10 miles    
Events      
Averages and records for this station are not official NWS values.
T = Trace of Precipitation, MM = Missing Value Source: NWS Daily Summary

Daily Weather History Graph

Daily Weather History Graph

Search for Another Location

Airport or City:

Trip Planner

Search our weather history database for the weather conditions in past years. The results will help you decide how hot, cold, wet, or windy it might be!

Date:

Astronomy

Mar. 25, 2014 Rise Set
Actual Time 6:38 AM EDT 7:03 PM EDT
Civil Twilight 6:09 AM EDT 7:32 PM EDT
Nautical Twilight 5:35 AM EDT 8:07 PM EDT
Astronomical Twilight 4:59 AM EDT 8:42 PM EDT
Moon 3:09 AM EDT (3/25) 1:19 PM EDT (3/25)
Length of Visible Light 13h 23m
Length of Day
12h 24m
Waning Crescent, 32% of the Moon is Illuminated
Mar 25
Waning Crescent
Mar 30
New
Apr 7
First Quarter
Apr 15
Full
Apr 22
Last Quarter

Hourly Weather History & Observations

Time (EDT) Temp. Windchill Dew Point Humidity Pressure Visibility Wind Dir Wind Speed Gust Speed Precip Events Conditions
12:52 AM -11.0 °F - -16.1 °F 78% 30.11 in 10.0 mi Calm Calm - N/A   Clear
1:52 AM -11.0 °F - -17.0 °F 75% 30.11 in 10.0 mi Calm Calm - N/A   Clear
2:52 AM -13.0 °F - -18.9 °F 75% 30.11 in 10.0 mi Calm Calm - N/A   Clear
3:52 AM -14.1 °F - -22.0 °F 68% 30.10 in 10.0 mi Calm Calm - N/A   Clear
4:52 AM -17.0 °F - -24.0 °F 70% 30.10 in 10.0 mi Calm Calm - N/A   Clear
5:52 AM -18.0 °F - -25.1 °F 70% 30.11 in 10.0 mi Calm Calm - N/A   Clear
6:52 AM -18.9 °F - -26.0 °F 70% 30.13 in 10.0 mi Calm Calm - N/A   Clear
7:52 AM -11.9 °F - -18.0 °F 74% 30.14 in 10.0 mi Calm Calm - N/A   Clear
8:52 AM -5.1 °F - -9.9 °F 80% 30.13 in 10.0 mi Calm Calm - N/A   Clear
9:52 AM 8.1 °F - -4.0 °F 58% 30.08 in 10.0 mi Calm Calm - N/A   Clear
10:52 AM 21.9 °F - 1.0 °F 40% 30.06 in 10.0 mi Calm Calm - N/A   Clear
11:52 AM 24.1 °F 14.4 °F 1.9 °F 38% 30.04 in 10.0 mi SSW 9.2 mph - N/A   Partly Cloudy
12:52 PM 26.1 °F 17.6 °F 1.9 °F 35% 30.03 in 10.0 mi WSW 8.1 mph 20.7 mph N/A   Mostly Cloudy
1:52 PM 27.0 °F 18.0 °F -0.0 °F 31% 30.03 in 10.0 mi West 9.2 mph 19.6 mph N/A   Mostly Cloudy
2:52 PM 27.0 °F 20.5 °F 3.0 °F 36% 30.04 in 10.0 mi Variable 5.8 mph - N/A   Overcast
3:52 PM 28.9 °F 22.8 °F 3.0 °F 33% 30.02 in 10.0 mi Variable 5.8 mph - N/A   Overcast
4:52 PM 27.0 °F 20.5 °F 1.9 °F 34% 30.01 in 10.0 mi SSW 5.8 mph - N/A   Mostly Cloudy
5:52 PM 28.0 °F 20.8 °F 1.9 °F 33% 30.02 in 10.0 mi WSW 6.9 mph - N/A   Scattered Clouds
6:52 PM 26.1 °F - 3.0 °F 37% 30.03 in 10.0 mi Calm Calm - N/A   Scattered Clouds
7:52 PM 19.9 °F - 5.0 °F 52% 30.03 in 10.0 mi Calm Calm - N/A   Clear
8:52 PM 12.9 °F - 3.9 °F 67% 30.05 in 10.0 mi Calm Calm - N/A   Clear
9:52 PM 9.0 °F - 1.9 °F 73% 30.04 in 10.0 mi Calm Calm - N/A   Clear
10:52 PM 7.0 °F - 1.0 °F 77% 30.03 in 10.0 mi Calm Calm - N/A   Clear
11:52 PM 7.0 °F - 1.0 °F 77% 30.03 in 10.0 mi Calm Calm - N/A   Clear